Great Falls, MT

2:04 PM MDT on April 30, 2017 (GMT -0600)
Great Falls International

Weather History for KGTF - March, 2013

Change the Weather History Date:

Saturday, March 9, 2013

  Actual Average Record
Temperature  
Mean Temperature 33 °F 32 °F  
Max Temperature 48 °F 44 °F 70 °F (1972)
Min Temperature 18 °F 20 °F -28 °F (1932)
Degree Days  
Heating Degree Days 32 33  
Month to date heating degree days 286 307  
Since 1 July heating degree days 5099 5812  
Cooling Degree Days 0 0  
Month to date cooling degree days 0 0  
Year to date cooling degree days 0 0  
Moisture  
Dew Point 18 °F    
Average Humidity 56    
Maximum Humidity 84    
Minimum Humidity 28    
Precipitation  
Precipitation 0.00 in 0.02 in 0.24 in (1917)
Month to date precipitation 0.04 0.21  
Year to date precipitation 1.08 1.19  
Snow  
Snow 0.00 in 0.40 in 3.50 in (1935)
Month to date snowfall 1.1 3.3  
Since 1 July snowfall 56.9 43.3  
Snow Depth 0.00 in    
Sea Level Pressure  
Sea Level Pressure 30.22 in    
Wind  
Wind Speed 9 mph (WSW)    
Max Wind Speed 18 mph    
Max Gust Speed 30 mph    
Visibility 10 miles    
Events      
T = Trace of Precipitation, MM = Missing Value Source: NWS Daily Summary

Daily Weather History Graph

Daily Weather History Graph

Search for Another Location

Airport or City:

Trip Planner

Search our weather history database for the weather conditions in past years. The results will help you decide how hot, cold, wet, or windy it might be!

Date:

Astronomy

Mar. 09, 2013 Rise Set
Actual Time 6:49 AM MST 6:22 PM MST
Civil Twilight 6:19 AM MST 6:53 PM MST
Nautical Twilight 5:43 AM MST 7:29 PM MST
Astronomical Twilight 5:07 AM MST 8:05 PM MST
Moon 5:22 AM MST (3/9) 4:23 PM MST (3/9)
Length of Visible Light 12h 34m
Length of Day
11h 33m
Waning Crescent, 5% of the Moon is Illuminated
Mar 9
Waning Crescent
Mar 11
New
Mar 19
First Quarter
Mar 27
Full
Apr 2
Last Quarter

Hourly Weather History & Observations

Time (MST) Temp. Windchill Dew Point Humidity Pressure Visibility Wind Dir Wind Speed Gust Speed Precip Events Conditions
12:53 AM 21.0 °F 11.4 °F 18.0 °F 88% 30.08 in 10.0 mi SSW 8.1 mph - N/A   Clear
1:53 AM 21.9 °F 11.7 °F 18.0 °F 85% 30.08 in 10.0 mi SW 9.2 mph - N/A   Clear
2:53 AM 19.0 °F 8.2 °F 14.0 °F 81% 30.09 in 10.0 mi SW 9.2 mph - N/A   Clear
3:53 AM 19.9 °F 9.3 °F 14.0 °F 78% 30.09 in 10.0 mi SW 9.2 mph - N/A   Clear
4:53 AM 24.1 °F 13.7 °F 17.1 °F 75% 30.11 in 10.0 mi SW 10.4 mph - N/A   Clear
5:53 AM 21.9 °F 11.0 °F 16.0 °F 78% 30.15 in 10.0 mi SW 10.4 mph - N/A   Clear
6:53 AM 23.0 °F 14.7 °F 16.0 °F 74% 30.19 in 10.0 mi WSW 6.9 mph - N/A   Clear
7:53 AM 28.0 °F 19.3 °F 19.9 °F 72% 30.21 in 10.0 mi SW 9.2 mph - N/A   Clear
8:53 AM 32.0 °F 24.2 °F 23.0 °F 69% 30.23 in 10.0 mi SW 9.2 mph - N/A   Clear
9:53 AM 37.9 °F 32.7 °F 23.0 °F 55% 30.26 in 10.0 mi West 6.9 mph - N/A   Clear
10:53 AM 43.0 °F 37.2 °F 19.9 °F 40% 30.24 in 10.0 mi NW 10.4 mph 19.6 mph N/A   Clear
11:53 AM 45.0 °F 39.7 °F 15.1 °F 30% 30.25 in 10.0 mi NW 10.4 mph 18.4 mph N/A   Clear
12:53 PM 46.9 °F - 16.0 °F 29% 30.25 in 10.0 mi NW 13.8 mph 29.9 mph N/A   Clear
1:53 PM 46.0 °F 42.5 °F 16.0 °F 30% 30.25 in 10.0 mi WNW 6.9 mph 21.9 mph N/A   Clear
2:53 PM 46.9 °F - 17.1 °F 30% 30.26 in 10.0 mi North 8.1 mph - N/A   Clear
3:53 PM 46.9 °F - 16.0 °F 29% 30.27 in 10.0 mi NNW 6.9 mph - N/A   Clear
4:53 PM 46.0 °F 43.1 °F 17.1 °F 31% 30.27 in 10.0 mi North 5.8 mph - N/A   Clear
5:53 PM 42.1 °F 38.4 °F 18.0 °F 38% 30.30 in 10.0 mi NE 5.8 mph - N/A   Clear
6:53 PM 36.0 °F 32.1 °F 16.0 °F 44% 30.31 in 10.0 mi ENE 4.6 mph - N/A   Clear
7:53 PM 34.0 °F 26.6 °F 18.0 °F 52% 30.32 in 10.0 mi East 9.2 mph - N/A   Clear
8:53 PM 32.0 °F 24.8 °F 18.0 °F 56% 30.31 in 10.0 mi East 8.1 mph - N/A   Clear
9:53 PM 33.1 °F 26.9 °F 18.0 °F 54% 30.28 in 10.0 mi ESE 6.9 mph - N/A   Clear
10:53 PM 26.1 °F 16.8 °F 17.1 °F 69% 30.27 in 10.0 mi SSW 9.2 mph - N/A   Clear
11:53 PM 30.0 °F 20.5 °F 19.0 °F 64% 30.25 in 10.0 mi SW 11.5 mph - N/A   Clear